Retour au catalogue

CZ-6A DEB

ActifSSO
NORAD 56642·DEBRIS·🇨🇳 China

Lancé Nov 11, 2022 depuis Taiyuan Satellite Launch Center

Loading…

Prochains Passages (prochaines 24 heures)

TLE

FraisSource: Space-Track

Époque: Sep 14, 2026, 03:49 UTC

1 56642U 22151AFS 26257.15914538  .00000027  00000-0  50127-4 0  9990
2 56642  98.9253 220.8253 0126334 202.5367 157.0216 13.93375030172317

Suivez CZ-6A DEB en temps réel avec AllMySat

Download on the App Store